Погода в Ижевске

Погода в Ижевске : погода сейчас, прогноз погоды и архив. Всё, что Вы хотите узнать о погоде в Ижевске!

Хотите узнать прогноз погоды в Ижевске? Тогда Вам сюда: Погода в Ижевске

Поиск расширенной информации на нашем сайте:

Полезная информация:

Другие новости

Новости СМИ2

Главная страница сайта

Новости сайта

03.07.2017

Напоминаем, что на нашем специализированном сайте Метеоцентр.Азия вы можете получить высокодетализированные автоматические прогнозы погоды по пунктам России, СНГ и мира в авиационном формате (включающие направление и скорость ветра, видимость, явления погоды, количество и форму облачности, нижнюю и верхнюю границу облачности).

Рекомендуем:

Погода в Ижевске - сегодня

Время (UTC), дата Ветер
(°,м/с) 
Видим.   Явления Облачность Т
(°С)
Тd
(°С)
f(%) Тe
(°С)
Pmin
(гПа)
dP
(гПа)
Po
(мм)
O2
(г/м3)
Тmin Tmax R s Состояние
почвы
12 15.07.19 330 (СЗ) 6-9{14}  10 км  {ливн. осадки}  10/10 300 м кучево-дожд. 
[Cb calv]
+14.9 +13.4 91 +21  998.9  -2  735  278           
15 15.07.19 320 (СЗ) 5-6{10}  10 км  слаб. ливневой дождь  10/10 300 м кучево-дожд. 
[Cb calv]
+14.5 +13.9 96 +21  997.2  -1.7  734  278    +15     
18 15.07.19 330 (СЗ) 3-6{10}  10 км  слаб. ливневой дождь  10/6 300 м кучево-дожд., средняя 
[Cb calv|Ac und]
+13.9 +13.3 96 +20  996.8  -0.4  734  279           
21 15.07.19 290 (З) 7-10{11}  10 км  слаб. ливневой дождь  10/10 300 м кучево-дожд. 
[Cb calv]
+13.7 +13.3 97 +19  997.1  0.3  734  279           
00 16.07.19 280 (З) 7-10{11}  10 км  слаб. ливневой дождь  10/10 600 м кучево-дожд. 
[Cb calv]
+13.6 +13.2 97 +18  999.9  2.8  736  280           
03 16.07.19 280 (З) 7-10{12}  10 км  {ливн. осадки}  9/5 1000 м средняя 
[Sc|Ac trans]
+14.4 +12.6 89 +18  1002.3  2.3  738  280  +13.3    12    мокрая 
06 16.07.19 290 (З) 9-12{13}  10 км  {ливн. осадки}  8/0 средняя, верхняя 
[Ac trans|Ci]
+18.6 +12.1 66 +22  1004.6  2.6  740  277           
09 16.07.19 270 (З) 9-12{14}  10 км    9/9 1000 м кучево-дожд. 
[Cb calv]
+21.1 +12.8 59 +26  1007.3  2.7  742  275           
12 16.07.19 300 (СЗ) 7-10{12}  10 км    8/8 1000 м 
[Cu med, cong]
+23.1 +13.7 55 +30  1009.2  743  273           
15 16.07.19 300 (СЗ) 4-8{10}  10 км    3/3 1000 м 
[Cu hum]
+22.7 +10.4 46 +25  1010.8  1.6  744  275    +23.7       
18 16.07.19 тихо () -4{08}  10 км    3/0 средняя, верхняя 
[Ac trans|Ci fib]
+16 +12 77 +20  1012.7  1.4  745  281           
21 16.07.19 тихо () -2{04}  10 км    3/0 верхняя 
[Ci fib]
+13.7 +10.6 82 +16  1014.1  1.3  746  284           
00 17.07.19 тихо () -2{03}  10 км    10/0 верхняя 
[Ci fib]
+12.3 +10.7 90 +14  1015.2  747  286           
03 17.07.19 тихо () -2{03}  10 км    10/0 верхняя 
[Ci fib]
+13.9 +11.9 88 +18  1015.8  0.7  748  284  +11.5        влажная 
06 17.07.19 тихо () -2{03}  10 км    10/0 средняя, верхняя 
[Ac trans|Ci fib]
+21 +14.3 66 +29  1015.3  -0.1  747  277           
09 17.07.19 220 (ЮЗ) 2-3{05}  10 км    8/4 1000 м верхняя 
[Cu hum|Ci fib]
+23.4 +10.6 44 +25  1014.8  -0.4  747  275           
12 17.07.19 тихо () -2{05}  10 км    3/3 1000 м 
[Cu hum]
+24.1 +11.1 44 +27  1013.9  -0.7  747  274           
15 17.07.19 тихо () -2{03}  10 км    4/1 1000 м верхняя 
[Cu hum|Ci fib]
+23.3 +12.7 51 +28  1013.2  -0.8  746  275    +24.5       
18 17.07.19 тихо () -1{02}  10 км    3/0 средняя, верхняя 
[Ac trans|Ci fib]
+17.6 +12.4 72 +22  1013.6  746  280           
21 17.07.19 090 (В) 2-2{03}  10 км    4/0 средняя 
[Ac trans]
+14.8 +11.9 83 +19  1013  -0.8  745  283           
00 18.07.19 090 (В) 2-3{04}  10 км    3/0 средняя 
[Ac trans]
+13.4 +12.1 92 +18  1012.9  -0.2  745  284           
03 18.07.19 080 (В) 2-3{05}  10 км    3/0 средняя, верхняя 
[Ac trans|Ci fib]
+16.1 +13.6 85 +24  1012.4  -0.3  745  281  +13        сухая 
06 18.07.19 110 (В) 3-4{05}  10 км    9/0 средняя, верхняя 
[Ac trans|Ci fib]
+22.5 +14.8 62 +31  1011.6  -0.4  745  274           
09 18.07.19 080 (В) 3-4{05}  10 км    10/3 1500 м средняя, верхняя 
[Sc|Ac trans|Ci fib]
+22.9 +15.6 63 +33  1010.9  -0.6  744  273           
12 18.07.19 080 (В) 2-3{05}  10 км    3/0 средняя 
[Ac trans]
+24.5 +14.6 54 +33  1009.9  -0.9  744  272           
Время (UTC), дата Ветер
(°,м/с) 
Видим.   Явления Облачность Т
(°С)
Тd
(°С)
f(%) Тe
(°С)
Pmin
(гПа)
dP
(гПа)
Po
(мм)
O2
(г/м3)
Тmin Tmax R s Состояние
почвы

Для получения пояснительной информации подведите курсор к названию столбца.

ПОГОДА в Ижевске - архив

Всё, что Вы хотите узнать о погоде в Ижевске - удобно и подробно!

Выберите нужную дату (начиная с 1 января 2018* года) и нажмите кнопку "Найти".
Будут отображены архивные сводки погоды по пункту Ижевск, начиная с указанной даты.


Отображать данные в формате CSV (для использования в таблицах Excel)


Внимание! Наш архив погоды предназначен исключительно для личного некоммерческого использования в познавательных целях. Если Вам необходимы официальные справки о состоянии погоды (для производственных, юридических, коммерческих и т.п. целей), обращайтесь в органы Росгидромета.

*Примечание: данная дата относится к архиву по метеостанциям СССР (Россия, СНГ, Балтия).
Архив по метеостанциям Зарубежной Европы и Азии (кроме Китая) хранится 10 дней, по другим регионам земного шара (Китай, Африка, Америка, Австралия, Океания) - 1 день.

Ижевск - район местоположения метеостанции


Название, широта, долгота, высота метеостанции:
Ижевск 56.8°ш. 53.4°д. 159 м над ур. моря [Российская Федерация]

Дополнительная информация

В oтличие oт бoльшинства пoгoдных сайтoв мы публикуем пoдрoбную метеoинфoрмацию в детальнoм прoфессиoнальнoм фoрмате.

Характеристики температуры и влажнoсти вoздуха измеряются на высoте 2 м в тени вдали oт зданий и деревьев.
Скoрoсть ветра измеряется на высoте 10 м (на урoвне рoста челoвека скoрoсть ветра ниже в 1.5-2 раза). Если метеoстанция нахoдится в гoрoде или в лесу, тo скoрoсть ветра занижена на 2-4 м/с пo сравнению с oткрытым местoм. Скoрoсть ветра над акватoриями крупных рек и oзёр, а также на вершинах хoлмoв на 2-5 м/с выше, чем в oбычных услoвиях.
Атмoсфернoе давление в разных тoчках местнoсти мoжет значительнo oтличаться oт давления на метеoстанции, в зависимoсти oт услoвий рельефа (при пoдъёме на 10 м давление пoнижается примернo на 1 мм рт.ст.).